| time (UTC) | temp C | wind direction | speed KPH | gust KPH | rain 1hr cm | rain 24hr cm | rain mn cm | humidity % | barometer mb |
| 20260506103031 | 11 | 132 | 4.8 | 16.1 | 0.00 | 0.00 | 0.00 | 68 | 1010.3 |
| 20260506101527 | 11 | 123 | 4.8 | 22.5 | 0.00 | 0.00 | 0.00 | 69 | 1010.5 |
| 20260506100032 | 11 | 162 | 8.0 | 17.7 | 0.00 | 0.00 | 0.00 | 70 | 1010.5 |
| 20260506094533 | 11 | 150 | 11.3 | 17.7 | 0.00 | 0.00 | 0.00 | 69 | 1010.7 |
| 20260506093040 | 10 | 153 | 4.8 | 24.1 | 0.00 | 0.00 | 0.00 | 72 | 1010.8 |
| 20260506091525 | 10 | 155 | 4.8 | 22.5 | 0.00 | 0.00 | 0.00 | 74 | 1010.8 |
| 20260506090025 | 10 | 137 | 4.8 | 16.1 | 0.00 | 0.00 | 0.00 | 75 | 1010.8 |
| 20260506084523 | 9 | 161 | 0.0 | 19.3 | 0.00 | 0.00 | 0.00 | 78 | 1010.9 |
| 20260506083020 | 8 | 176 | 6.4 | 17.7 | 0.00 | 0.00 | 0.00 | 85 | 1011.0 |
| 20260506081518 | 8 | 146 | 4.8 | 12.9 | 0.00 | 0.00 | 0.00 | 91 | 1011.1 |
| 20260506073013 | 6 | 86 | 0.0 | 6.4 | 0.00 | 0.00 | 0.00 | 96 | 1011.1 |
| 20260506071513 | 6 | 86 | 1.6 | 9.7 | 0.00 | 0.00 | 0.00 | 96 | 1010.8 |
| 20260506061506 | 5 | 98 | 0.0 | 3.2 | 0.00 | 0.00 | 0.00 | 97 | 1010.3 |
| 20260506050113 | -17 | 0.0 | 0.0 | 0.00 | 0.00 | 0.00 | 1009.7 | ||
| 20260506044559 | -17 | 0.0 | 0.0 | 0.00 | 0.00 | 0.00 | 1009.7 | ||
| 20260506043050 | -17 | 0.0 | 0.0 | 0.00 | 0.00 | 0.00 | 1009.8 | ||
| 20260506041553 | -17 | 0.0 | 0.0 | 0.00 | 0.00 | 0.00 | 1009.4 | ||
| 20260506040146 | -17 | 0.0 | 0.0 | 0.00 | 0.00 | 0.00 | 1009.5 | ||
| 20260506034542 | -17 | 0.0 | 0.0 | 0.00 | 0.00 | 0.00 | 1009.3 | ||
| 20260506033039 | 5 | 103 | 0.0 | 11.3 | 0.00 | 0.00 | 0.00 | 96 | 1009.1 |
| 20260506031554 | 5 | 103 | 1.6 | 12.9 | 0.00 | 0.00 | 0.00 | 96 | 1009.0 |
| 20260506030046 | 5 | 95 | 0.0 | 11.3 | 0.00 | 0.00 | 0.00 | 96 | 1009.0 |
| 20260506024537 | 6 | 87 | 1.6 | 14.5 | 0.00 | 0.00 | 0.00 | 96 | 1008.8 |
| 20260506023036 | 6 | 126 | 1.6 | 11.3 | 0.00 | 0.00 | 0.00 | 96 | 1009.0 |
| 20260506021531 | 6 | 138 | 0.0 | 6.4 | 0.00 | 0.00 | 0.00 | 96 | 1008.7 |
| 20260506020031 | 6 | 139 | 0.0 | 3.2 | 0.00 | 0.00 | 0.00 | 96 | 1008.6 |
| 20260506014532 | 6 | 139 | 0.0 | 4.8 | 0.00 | 0.00 | 0.00 | 96 | 1008.4 |
| 20260506013030 | 6 | 139 | 0.0 | 0.0 | 0.00 | 0.00 | 0.00 | 96 | 1008.5 |
| 20260506011530 | 6 | 139 | 0.0 | 1.6 | 0.00 | 0.00 | 0.00 | 96 | 1008.8 |
| 20260506010032 | 6 | 133 | 0.0 | 6.4 | 0.00 | 0.00 | 0.00 | 96 | 1008.2 |
| 20260506004539 | 6 | 132 | 3.2 | 11.3 | 0.00 | 0.00 | 0.00 | 96 | 1008.6 |
| 20260506003027 | 7 | 111 | 0.0 | 9.7 | 0.00 | 0.00 | 0.00 | 96 | 1008.4 |
| 20260506001524 | 7 | 111 | 0.0 | 4.8 | 0.00 | 0.00 | 0.00 | 96 | 1009.2 |
| 20260506000026 | 6 | 111 | 0.0 | 0.0 | 0.00 | 0.00 | 0.00 | 96 | 1008.6 |
| 20260505234600 | 6 | 111 | 0.0 | 0.0 | 0.00 | 0.00 | 0.00 | 96 | 1008.5 |
| 20260505233025 | 6 | 111 | 0.0 | 9.7 | 0.00 | 0.00 | 0.00 | 96 | 1009.2 |
| 20260505231524 | 6 | 111 | 0.0 | 3.2 | 0.00 | 0.00 | 0.00 | 96 | 1009.0 |
| 20260505230027 | 6 | 111 | 0.0 | 0.0 | 0.00 | 0.00 | 0.00 | 96 | 1009.2 |
| 20260505224530 | 7 | 111 | 0.0 | 12.9 | 0.00 | 0.00 | 0.00 | 96 | 1009.6 |
| 20260505223024 | 7 | 80 | 0.0 | 8.0 | 0.00 | 0.00 | 0.00 | 96 | 1009.5 |
| 20260505221522 | 7 | 115 | 1.6 | 12.9 | 0.00 | 0.00 | 0.00 | 96 | 1009.9 |
| 20260505220025 | 7 | 96 | 0.0 | 0.0 | 0.00 | 0.00 | 0.00 | 96 | 1010.3 |
| 20260505214524 | 7 | 96 | 1.6 | 9.7 | 0.00 | 0.00 | 0.00 | 96 | 1010.0 |
| 20260505213023 | 7 | 88 | 0.0 | 11.3 | 0.00 | 0.00 | 0.00 | 96 | 1009.1 |
| 20260505211520 | 7 | 97 | 3.2 | 14.5 | 0.00 | 0.00 | 0.00 | 96 | 1009.2 |
| 20260505210022 | 7 | 114 | 4.8 | 17.7 | 0.00 | 0.00 | 0.00 | 96 | 1009.7 |
| 20260505204525 | 7 | 98 | 1.6 | 12.9 | 0.00 | 0.00 | 0.00 | 96 | 1009.0 |
| 20260505203017 | 8 | 88 | 4.8 | 16.1 | 0.00 | 0.00 | 0.00 | 96 | 1009.6 |
| 20260505201514 | 8 | 109 | 0.0 | 12.9 | 0.00 | 0.00 | 0.00 | 96 | 1009.7 |
| 20260505200021 | 8 | 111 | 3.2 | 17.7 | 0.00 | 0.00 | 0.00 | 97 | 1008.9 |
| 20260505194510 | 8 | 94 | 3.2 | 16.1 | 0.00 | 0.00 | 0.00 | 97 | 1009.2 |
| 20260505193010 | 8 | 117 | 4.8 | 16.1 | 0.00 | 0.00 | 0.00 | 97 | 1008.8 |
| 20260505191505 | 9 | 128 | 1.6 | 9.7 | 0.00 | 0.00 | 0.00 | 97 | 1009.3 |
| 20260505190006 | 10 | 121 | 3.2 | 17.7 | 0.00 | 0.00 | 0.00 | 97 | 1008.9 |
| 20260505184501 | 10 | 114 | 4.8 | 17.7 | 0.00 | 0.00 | 0.00 | 97 | 1008.0 |
| 20260505183100 | 10 | 132 | 9.7 | 20.9 | 0.00 | 0.00 | 0.00 | 97 | 1007.5 |
| 20260505181557 | 10 | 132 | 8.0 | 19.3 | 0.00 | 0.00 | 0.00 | 97 | 1007.2 |
| 20260505174555 | 11 | 101 | 8.0 | 29.0 | 0.00 | 0.00 | 0.00 | 97 | 1006.9 |
| 20260505173052 | 12 | 97 | 9.7 | 29.0 | 0.00 | 0.00 | 0.00 | 97 | 1007.2 |
| 20260505171548 | 12 | 137 | 3.2 | 12.9 | 0.00 | 0.00 | 0.00 | 97 | 1006.4 |
| 20260505170052 | 12 | 144 | 1.6 | 16.1 | 0.00 | 0.00 | 0.00 | 97 | 1005.8 |
| 20260505164557 | 12 | 155 | 6.4 | 17.7 | 0.00 | 0.00 | 0.00 | 97 | 1006.1 |
| 20260505163052 | 12 | 154 | 0.0 | 9.7 | 0.00 | 0.00 | 0.00 | 97 | 1006.3 |
| 20260505161553 | 12 | 154 | 1.6 | 12.9 | 0.00 | 0.00 | 0.00 | 97 | 1006.2 |
| 20260505153150 | 12 | 217 | 1.6 | 4.8 | 0.00 | 0.00 | 0.00 | 97 | 1005.0 |
| 20260505151547 | 12 | 215 | 0.0 | 4.8 | 0.00 | 0.00 | 0.00 | 97 | 1004.8 |
| 20260505124548 | 13 | 159 | 4.8 | 24.1 | 0.00 | 0.00 | 0.00 | 94 | 1005.6 |
| 20260505123040 | 13 | 125 | 6.4 | 17.7 | 0.00 | 0.00 | 0.00 | 92 | 1005.8 |
| 20260505121540 | 15 | 146 | 11.3 | 25.7 | 0.00 | 0.00 | 0.00 | 90 | 1005.7 |
| 20260505120047 | 17 | 101 | 6.4 | 12.9 | 0.00 | 0.00 | 0.00 | 89 | 1005.0 |
| 20260505114535 | 17 | 166 | 0.0 | 8.0 | 0.00 | 0.00 | 0.00 | 88 | 1004.7 |
| 20260505113035 | 17 | 171 | 0.0 | 4.8 | 0.00 | 0.00 | 0.00 | 87 | 1004.3 |
| 20260505111533 | 17 | 168 | 3.2 | 9.7 | 0.00 | 0.00 | 0.00 | 87 | 1004.3 |